| time (UTC) | temp F | wind direction | speed MPH | gust MPH | rain 1hr in | rain 24hr in | rain mn in | humidity % | barometer mb |
| 20260903152015 | 75 | 19 | 1.0 | 7.0 | 0.00 | 0.43 | 0.19 | 88 | 1016.1 |
| 20260903151539 | 75 | 215 | 2.0 | 9.0 | 0.00 | 0.43 | 0.19 | 89 | 1016.1 |
| 20260903151019 | 74 | 221 | 2.0 | 10.0 | 0.00 | 0.43 | 0.19 | 89 | 1016.1 |
| 20260903150517 | 74 | 205 | 4.0 | 10.0 | 0.00 | 0.43 | 0.19 | 88 | 1016.2 |
| 20260903150052 | 74 | 207 | 2.0 | 7.0 | 0.00 | 0.43 | 0.19 | 89 | 1016.0 |
| 20260903145518 | 74 | 208 | 3.0 | 9.0 | 0.00 | 0.43 | 0.19 | 88 | 1016.0 |
| 20260903145021 | 73 | 151 | 2.0 | 9.0 | 0.00 | 0.43 | 0.19 | 89 | 1015.9 |
| 20260903144537 | 73 | 309 | 1.0 | 7.0 | 0.00 | 0.43 | 0.19 | 90 | 1016.2 |
| 20260903144017 | 73 | 141 | 2.0 | 10.0 | 0.00 | 0.43 | 0.19 | 90 | 1016.2 |
| 20260903143516 | 73 | 170 | 2.0 | 10.0 | 0.00 | 0.43 | 0.19 | 89 | 1016.2 |
| 20260903143040 | 73 | 164 | 2.0 | 5.0 | 0.00 | 0.43 | 0.19 | 90 | 1016.3 |
| 20260903142521 | 73 | 137 | 1.0 | 5.0 | 0.00 | 0.43 | 0.19 | 90 | 1016.1 |
| 20260903142020 | 73 | 119 | 2.0 | 7.0 | 0.00 | 0.43 | 0.19 | 91 | 1016.2 |
| 20260903141539 | 72 | 236 | 2.0 | 7.0 | 0.00 | 0.43 | 0.19 | 91 | 1016.2 |
| 20260903141023 | 72 | 186 | 2.0 | 9.0 | 0.00 | 0.43 | 0.19 | 91 | 1016.0 |
| 20260903140520 | 72 | 219 | 3.0 | 9.0 | 0.00 | 0.43 | 0.19 | 92 | 1016.2 |
| 20260903140043 | 71 | 229 | 2.0 | 8.0 | 0.00 | 0.43 | 0.19 | 93 | 1016.0 |
| 20260903135517 | 71 | 196 | 2.0 | 7.0 | 0.00 | 0.43 | 0.19 | 94 | 1015.9 |
| 20260903135019 | 71 | 153 | 2.0 | 7.0 | 0.00 | 0.43 | 0.19 | 94 | 1016.1 |
| 20260903134538 | 70 | 196 | 2.0 | 8.0 | 0.00 | 0.43 | 0.19 | 94 | 1016.0 |
| 20260903134019 | 70 | 157 | 2.0 | 8.0 | 0.00 | 0.43 | 0.19 | 95 | 1016.0 |
| 20260903133519 | 70 | 245 | 2.0 | 7.0 | 0.00 | 0.43 | 0.19 | 95 | 1015.9 |
| 20260903133038 | 70 | 210 | 2.0 | 5.0 | 0.00 | 0.43 | 0.19 | 96 | 1015.9 |
| 20260903132518 | 70 | 247 | 1.0 | 5.0 | 0.00 | 0.43 | 0.19 | 96 | 1016.0 |
| 20260903132019 | 70 | 254 | 1.0 | 5.0 | 0.00 | 0.43 | 0.19 | 96 | 1016.0 |
| 20260903131535 | 70 | 188 | 2.0 | 5.0 | 0.00 | 0.43 | 0.19 | 97 | 1015.8 |
| 20260903131018 | 69 | 234 | 1.0 | 4.0 | 0.00 | 0.43 | 0.19 | 96 | 1015.6 |
| 20260903130515 | 69 | 137 | 1.0 | 7.0 | 0.00 | 0.43 | 0.19 | 96 | 1015.6 |
| 20260903130041 | 69 | 205 | 2.0 | 7.0 | 0.00 | 0.43 | 0.19 | 96 | 1016.0 |
| 20260903125516 | 69 | 173 | 1.0 | 5.0 | 0.00 | 0.43 | 0.19 | 97 | 1016.1 |
| 20260903125026 | 69 | 226 | 2.0 | 6.0 | 0.00 | 0.43 | 0.19 | 97 | 1016.1 |
| 20260903124537 | 68 | 193 | 2.0 | 7.0 | 0.00 | 0.43 | 0.19 | 96 | 1016.1 |
| 20260903124020 | 68 | 212 | 2.0 | 7.0 | 0.00 | 0.43 | 0.19 | 96 | 1016.0 |
| 20260903123518 | 68 | 196 | 1.0 | 6.0 | 0.00 | 0.43 | 0.19 | 96 | 1016.2 |
| 20260903123037 | 68 | 282 | 1.0 | 5.0 | 0.00 | 0.43 | 0.19 | 97 | 1016.4 |
| 20260903122516 | 68 | 162 | 1.0 | 5.0 | 0.00 | 0.43 | 0.19 | 97 | 1016.1 |
| 20260903122016 | 68 | 158 | 1.0 | 4.0 | 0.00 | 0.43 | 0.19 | 97 | 1016.3 |
| 20260903121544 | 68 | 193 | 1.0 | 4.0 | 0.00 | 0.43 | 0.19 | 97 | 1016.3 |
| 20260903121017 | 68 | 157 | 0.0 | 4.0 | 0.00 | 0.43 | 0.19 | 97 | 1016.1 |
| 20260903120519 | 68 | 193 | 1.0 | 4.0 | 0.00 | 0.43 | 0.19 | 97 | 1016.4 |
| 20260903120041 | 68 | 0 | 0.0 | 2.0 | 0.00 | 0.43 | 0.19 | 97 | 1016.7 |
| 20260903115521 | 68 | 0 | 0.0 | 3.0 | 0.00 | 0.43 | 0.19 | 97 | 1016.5 |
| 20260903115019 | 68 | 265 | 0.0 | 3.0 | 0.00 | 0.43 | 0.19 | 97 | 1016.3 |
| 20260903114549 | 68 | 137 | 0.0 | 4.0 | 0.00 | 0.43 | 0.19 | 97 | 1016.3 |
| 20260903114017 | 68 | 0 | 2.0 | 4.0 | 0.00 | 0.43 | 0.19 | 97 | 1016.3 |
| 20260903113521 | 68 | 178 | 0.0 | 4.0 | 0.00 | 0.43 | 0.19 | 97 | 1016.3 |
| 20260903113036 | 68 | 167 | 1.0 | 4.0 | 0.00 | 0.43 | 0.19 | 97 | 1016.3 |
| 20260903112516 | 67 | 212 | 1.0 | 2.0 | 0.00 | 0.43 | 0.19 | 97 | 1016.4 |
| 20260903112016 | 67 | 291 | 0.0 | 4.0 | 0.00 | 0.43 | 0.19 | 97 | 1016.3 |
| 20260903111540 | 67 | 137 | 1.0 | 4.0 | 0.00 | 0.43 | 0.19 | 97 | 1016.3 |
| 20260903111020 | 67 | 0 | 0.0 | 3.0 | 0.00 | 0.43 | 0.19 | 97 | 1016.1 |
| 20260903110518 | 67 | 265 | 0.0 | 3.0 | 0.00 | 0.43 | 0.19 | 97 | 1016.4 |
| 20260903110044 | 67 | 126 | 0.0 | 2.0 | 0.00 | 0.43 | 0.19 | 97 | 1016.3 |
| 20260903105519 | 67 | 44 | 0.0 | 4.0 | 0.00 | 0.43 | 0.19 | 97 | 1016.3 |
| 20260903105019 | 67 | 325 | 1.0 | 4.0 | 0.00 | 0.43 | 0.19 | 97 | 1016.0 |
| 20260903104536 | 67 | 221 | 1.0 | 4.0 | 0.00 | 0.43 | 0.19 | 96 | 1015.9 |
| 20260903104017 | 67 | 178 | 1.0 | 4.0 | 0.00 | 0.43 | 0.19 | 96 | 1016.2 |
| 20260903103517 | 68 | 205 | 1.0 | 5.0 | 0.00 | 0.43 | 0.19 | 96 | 1016.4 |
| 20260903103040 | 68 | 0 | 1.0 | 5.0 | 0.00 | 0.43 | 0.19 | 96 | 1016.4 |
| 20260903102516 | 68 | 200 | 0.0 | 3.0 | 0.00 | 0.43 | 0.19 | 96 | 1016.3 |
| 20260903102018 | 68 | 247 | 1.0 | 3.0 | 0.00 | 0.43 | 0.19 | 96 | 1016.2 |
| 20260903101545 | 68 | 229 | 0.0 | 2.0 | 0.00 | 0.43 | 0.19 | 96 | 1016.0 |
| 20260903101020 | 68 | 171 | 0.0 | 2.0 | 0.00 | 0.43 | 0.19 | 96 | 1016.0 |
| 20260903100519 | 68 | 0 | 0.0 | 3.0 | 0.00 | 0.43 | 0.19 | 96 | 1016.1 |
| 20260903100044 | 68 | 229 | 1.0 | 4.0 | 0.00 | 0.43 | 0.19 | 96 | 1015.9 |
| 20260903095519 | 68 | 215 | 1.0 | 4.0 | 0.00 | 0.44 | 0.19 | 96 | 1015.9 |
| 20260903095018 | 68 | 218 | 1.0 | 5.0 | 0.00 | 0.44 | 0.19 | 96 | 1015.6 |
| 20260903094536 | 68 | 0 | 1.0 | 5.0 | 0.00 | 0.44 | 0.19 | 96 | 1015.7 |
| 20260903094021 | 68 | 162 | 2.0 | 10.0 | 0.00 | 0.44 | 0.19 | 96 | 1015.5 |
| 20260903093527 | 68 | 212 | 2.0 | 10.0 | 0.00 | 0.44 | 0.19 | 97 | 1015.9 |
| 20260903093113 | 68 | 243 | 1.0 | 6.0 | 0.00 | 0.44 | 0.19 | 96 | 1015.8 |
| 20260903092522 | 68 | 190 | 2.0 | 6.0 | 0.00 | 0.44 | 0.19 | 97 | 1015.6 |
| 20260903092021 | 67 | 178 | 1.0 | 5.0 | 0.00 | 0.44 | 0.19 | 97 | 1015.9 |
| 20260903091550 | 67 | 291 | 1.0 | 5.0 | 0.00 | 0.44 | 0.19 | 97 | 1015.8 |
| 20260903091020 | 67 | 205 | 1.0 | 6.0 | 0.00 | 0.44 | 0.19 | 96 | 1015.9 |
| 20260903090519 | 67 | 212 | 1.0 | 6.0 | 0.00 | 0.44 | 0.19 | 96 | 1015.9 |
| 20260903090043 | 67 | 187 | 1.0 | 3.0 | 0.00 | 0.44 | 0.19 | 96 | 1015.8 |
| 20260903085517 | 67 | 215 | 1.0 | 4.0 | 0.00 | 0.44 | 0.19 | 96 | 1015.7 |
| 20260903085018 | 67 | 158 | 0.0 | 5.0 | 0.01 | 0.44 | 0.19 | 96 | 1015.5 |
| 20260903084539 | 67 | 178 | 1.0 | 5.0 | 0.01 | 0.44 | 0.19 | 96 | 1015.7 |
| 20260903084019 | 67 | 238 | 2.0 | 5.0 | 0.01 | 0.44 | 0.19 | 96 | 1015.7 |
| 20260903083521 | 67 | 205 | 2.0 | 5.0 | 0.01 | 0.44 | 0.19 | 96 | 1015.9 |
| 20260903083046 | 67 | 160 | 2.0 | 5.0 | 0.01 | 0.44 | 0.19 | 96 | 1016.1 |
| 20260903082527 | 67 | 178 | 2.0 | 5.0 | 0.01 | 0.44 | 0.19 | 96 | 1016.3 |
| 20260903082020 | 67 | 195 | 1.0 | 4.0 | 0.01 | 0.44 | 0.19 | 96 | 1016.5 |
| 20260903081544 | 67 | 0 | 0.0 | 2.0 | 0.01 | 0.44 | 0.19 | 96 | 1016.6 |
| 20260903081023 | 67 | 153 | 0.0 | 2.0 | 0.01 | 0.44 | 0.19 | 96 | 1016.7 |
| 20260903080527 | 67 | 0 | 0.0 | 3.0 | 0.02 | 0.44 | 0.19 | 96 | 1016.8 |
| 20260903080042 | 67 | 178 | 1.0 | 3.0 | 0.02 | 0.44 | 0.19 | 96 | 1016.7 |
| 20260903075517 | 67 | 178 | 1.0 | 4.0 | 0.02 | 0.44 | 0.19 | 96 | 1016.6 |
| 20260903075021 | 67 | 119 | 1.0 | 5.0 | 0.01 | 0.43 | 0.18 | 96 | 1016.4 |
| 20260903074544 | 67 | 146 | 1.0 | 5.0 | 0.01 | 0.43 | 0.18 | 96 | 1016.5 |
| 20260903074020 | 66 | 221 | 1.0 | 4.0 | 0.01 | 0.43 | 0.18 | 96 | 1016.6 |
| 20260903073520 | 66 | 257 | 1.0 | 5.0 | 0.01 | 0.43 | 0.18 | 96 | 1016.7 |
| 20260903073040 | 66 | 178 | 0.0 | 5.0 | 0.01 | 0.43 | 0.18 | 96 | 1016.7 |
| 20260903072521 | 66 | 196 | 1.0 | 5.0 | 0.01 | 0.43 | 0.18 | 96 | 1016.6 |
| 20260903072019 | 66 | 205 | 2.0 | 4.0 | 0.01 | 0.43 | 0.18 | 96 | 1016.7 |
| 20260903071554 | 67 | 178 | 1.0 | 4.0 | 0.02 | 0.43 | 0.18 | 96 | 1016.8 |
| 20260903071020 | 67 | 196 | 1.0 | 4.0 | 0.02 | 0.43 | 0.18 | 96 | 1016.9 |
| 20260903070526 | 67 | 193 | 1.0 | 4.0 | 0.01 | 0.42 | 0.17 | 96 | 1017.1 |
| 20260903070057 | 67 | 171 | 0.0 | 3.0 | 0.01 | 0.42 | 0.17 | 96 | 1017.1 |
| 20260903065520 | 67 | 205 | 0.0 | 3.0 | 0.01 | 0.42 | 0.17 | 96 | 1017.2 |
| 20260903065018 | 67 | 170 | 1.0 | 4.0 | 0.01 | 0.42 | 0.17 | 96 | 1017.2 |
| 20260903064538 | 67 | 265 | 1.0 | 4.0 | 0.01 | 0.42 | 0.17 | 96 | 1017.2 |
| 20260903064019 | 66 | 193 | 1.0 | 4.0 | 0.02 | 0.42 | 0.17 | 96 | 1017.1 |
| 20260903063524 | 66 | 157 | 1.0 | 2.0 | 0.02 | 0.42 | 0.17 | 96 | 1017.1 |
| 20260903063041 | 66 | 0 | 1.0 | 2.0 | 0.02 | 0.42 | 0.17 | 96 | 1017.1 |
| 20260903062522 | 66 | 178 | 1.0 | 2.0 | 0.03 | 0.42 | 0.17 | 96 | 1017.2 |
| 20260903062023 | 66 | 0 | 0.0 | 2.0 | 0.04 | 0.42 | 0.17 | 96 | 1017.3 |
| 20260903061539 | 66 | 0 | 0.0 | 2.0 | 0.05 | 0.41 | 0.16 | 96 | 1017.4 |
| 20260903061023 | 66 | 64 | 0.0 | 2.0 | 0.06 | 0.41 | 0.16 | 96 | 1017.5 |
| 20260903060521 | 66 | 80 | 0.0 | 2.0 | 0.09 | 0.41 | 0.16 | 96 | 1017.7 |
| 20260903060042 | 66 | 61 | 0.0 | 2.0 | 0.12 | 0.41 | 0.16 | 96 | 1017.9 |
| 20260903055518 | 66 | 0 | 0.0 | 2.0 | 0.14 | 0.42 | 0.16 | 96 | 1017.8 |
| 20260903055019 | 66 | 325 | 1.0 | 3.0 | 0.16 | 0.42 | 0.16 | 96 | 1017.6 |
| 20260903054545 | 66 | 0 | 1.0 | 3.0 | 0.15 | 0.41 | 0.15 | 96 | 1017.5 |
| 20260903054021 | 66 | 279 | 1.0 | 3.0 | 0.15 | 0.41 | 0.15 | 96 | 1017.5 |
| 20260903053520 | 66 | 108 | 1.0 | 3.0 | 0.15 | 0.41 | 0.15 | 96 | 1017.6 |
| 20260903053043 | 66 | 298 | 0.0 | 3.0 | 0.14 | 0.40 | 0.14 | 96 | 1017.9 |
| 20260903052520 | 66 | 59 | 1.0 | 3.0 | 0.14 | 0.40 | 0.14 | 96 | 1017.9 |
| 20260903052021 | 66 | 165 | 1.0 | 3.0 | 0.12 | 0.38 | 0.12 | 96 | 1018.4 |
| 20260903051545 | 66 | 51 | 0.0 | 5.0 | 0.11 | 0.37 | 0.11 | 96 | 1018.8 |
| 20260903051021 | 66 | 247 | 1.0 | 5.0 | 0.10 | 0.36 | 0.10 | 96 | 1019.2 |
| 20260903050521 | 67 | 168 | 0.0 | 3.0 | 0.06 | 0.32 | 0.06 | 96 | 1019.6 |
| 20260903050101 | 67 | 0 | 1.0 | 3.0 | 0.03 | 0.29 | 0.03 | 96 | 1019.8 |
| 20260903045521 | 67 | 0 | 1.0 | 2.0 | 0.01 | 0.27 | 0.01 | 96 | 1019.8 |
| 20260903045022 | 66 | 273 | 0.0 | 3.0 | 0.00 | 0.26 | 0.00 | 96 | 1019.4 |
| 20260903044553 | 66 | 282 | 0.0 | 3.0 | 0.00 | 0.26 | 0.00 | 96 | 1019.2 |
| 20260903044020 | 66 | 131 | 1.0 | 2.0 | 0.00 | 0.26 | 0.00 | 96 | 1019.2 |
| 20260903043521 | 66 | 247 | 1.0 | 2.0 | 0.00 | 0.26 | 0.00 | 96 | 1019.4 |
| 20260903043042 | 66 | 238 | 0.0 | 3.0 | 0.00 | 0.26 | 0.00 | 96 | 1019.2 |
| 20260903042519 | 66 | 291 | 1.0 | 3.0 | 0.00 | 0.26 | 0.00 | 96 | 1019.2 |
| 20260903042018 | 66 | 0 | 0.0 | 2.0 | 0.00 | 0.26 | 0.00 | 96 | 1019.1 |
| 20260903041539 | 66 | 0 | 0.0 | 2.0 | 0.00 | 0.26 | 0.00 | 96 | 1019.0 |
| 20260903041024 | 66 | 0 | 0.0 | 1.0 | 0.00 | 0.26 | 0.00 | 96 | 1019.3 |
| 20260903040521 | 66 | 0 | 0.0 | 1.0 | 0.00 | 0.26 | 0.00 | 96 | 1019.4 |
| 20260903040050 | 66 | 0 | 0.0 | 1.0 | 0.00 | 0.26 | 0.00 | 96 | 1019.3 |
| 20260903035520 | 66 | 51 | 0.0 | 2.0 | 0.00 | 0.26 | 0.26 | 96 | 1019.4 |
| 20260903035020 | 66 | 0 | 0.0 | 2.0 | 0.00 | 0.26 | 0.26 | 96 | 1019.4 |
| 20260903034538 | 66 | 0 | 0.0 | 3.0 | 0.00 | 0.26 | 0.26 | 96 | 1019.5 |
| 20260903034018 | 66 | 247 | 0.0 | 5.0 | 0.00 | 0.26 | 0.26 | 96 | 1019.4 |
| 20260903033519 | 66 | 0 | 0.0 | 5.0 | 0.00 | 0.26 | 0.26 | 96 | 1019.3 |
| 20260903033042 | 66 | 193 | 1.0 | 5.0 | 0.00 | 0.26 | 0.26 | 95 | 1019.1 |
| 20260903032518 | 66 | 0 | 1.0 | 3.0 | 0.00 | 0.26 | 0.26 | 95 | 1019.0 |
| 20260903032021 | 66 | 67 | 0.0 | 3.0 | 0.00 | 0.26 | 0.26 | 95 | 1019.0 |
| 20260903031540 | 66 | 123 | 0.0 | 3.0 | 0.00 | 0.26 | 0.26 | 95 | 1018.9 |
| 20260903031021 | 66 | 0 | 1.0 | 3.0 | 0.00 | 0.26 | 0.26 | 95 | 1019.1 |
| 20260903030525 | 66 | 105 | 1.0 | 3.0 | 0.00 | 0.26 | 0.26 | 95 | 1019.2 |
| 20260903030041 | 66 | 9 | 0.0 | 3.0 | 0.00 | 0.26 | 0.26 | 95 | 1019.2 |
| 20260903025520 | 66 | 286 | 1.0 | 3.0 | 0.00 | 0.26 | 0.26 | 95 | 1019.4 |
| 20260903025017 | 66 | 0 | 1.0 | 3.0 | 0.00 | 0.26 | 0.26 | 95 | 1019.3 |
| 20260903024543 | 66 | 51 | 1.0 | 3.0 | 0.00 | 0.26 | 0.26 | 95 | 1019.4 |
| 20260903024021 | 66 | 303 | 1.0 | 3.0 | 0.00 | 0.26 | 0.26 | 95 | 1019.4 |
| 20260903023520 | 66 | 250 | 1.0 | 3.0 | 0.00 | 0.26 | 0.26 | 95 | 1019.4 |
| 20260903023045 | 66 | 0 | 1.0 | 3.0 | 0.00 | 0.26 | 0.26 | 95 | 1019.6 |
| 20260903022518 | 65 | 0 | 0.0 | 3.0 | 0.00 | 0.26 | 0.26 | 95 | 1019.4 |
| 20260903022020 | 66 | 0 | 0.0 | 3.0 | 0.00 | 0.26 | 0.26 | 96 | 1019.6 |
| 20260903021541 | 65 | 67 | 0.0 | 3.0 | 0.00 | 0.26 | 0.26 | 96 | 1019.7 |
| 20260903021022 | 65 | 61 | 1.0 | 3.0 | 0.00 | 0.26 | 0.26 | 96 | 1019.8 |
| 20260903020523 | 65 | 93 | 1.0 | 3.0 | 0.00 | 0.26 | 0.26 | 96 | 1019.7 |
| 20260903020041 | 65 | 76 | 1.0 | 3.0 | 0.00 | 0.26 | 0.26 | 96 | 1019.8 |
| 20260903015521 | 65 | 51 | 0.0 | 3.0 | 0.00 | 0.26 | 0.26 | 96 | 1019.6 |
| 20260903015022 | 65 | 316 | 0.0 | 3.0 | 0.00 | 0.26 | 0.26 | 96 | 1019.6 |
| 20260903014540 | 65 | 128 | 0.0 | 3.0 | 0.00 | 0.26 | 0.26 | 96 | 1019.7 |
| 20260903014022 | 65 | 255 | 0.0 | 2.0 | 0.00 | 0.26 | 0.26 | 96 | 1019.7 |
| 20260903013519 | 65 | 205 | 0.0 | 3.0 | 0.00 | 0.26 | 0.26 | 95 | 1019.8 |
| 20260903013038 | 65 | 51 | 0.0 | 3.0 | 0.00 | 0.26 | 0.26 | 96 | 1019.8 |
| 20260903012520 | 65 | 34 | 0.0 | 3.0 | 0.00 | 0.26 | 0.26 | 95 | 1020.1 |
| 20260903012019 | 65 | 44 | 1.0 | 4.0 | 0.00 | 0.26 | 0.26 | 95 | 1020.0 |
| 20260903011538 | 65 | 22 | 1.0 | 4.0 | 0.00 | 0.26 | 0.26 | 95 | 1020.0 |
| 20260903011018 | 65 | 149 | 0.0 | 3.0 | 0.00 | 0.26 | 0.26 | 95 | 1020.2 |
| 20260903010521 | 65 | 9 | 0.0 | 3.0 | 0.00 | 0.26 | 0.26 | 95 | 1020.2 |
| 20260903010040 | 65 | 0 | 0.0 | 2.0 | 0.00 | 0.26 | 0.26 | 95 | 1020.2 |
| 20260903005518 | 65 | 309 | 1.0 | 2.0 | 0.00 | 0.26 | 0.26 | 95 | 1020.1 |
| 20260903005022 | 65 | 325 | 0.0 | 2.0 | 0.00 | 0.26 | 0.26 | 95 | 1020.2 |
| 20260903004549 | 65 | 72 | 0.0 | 2.0 | 0.00 | 0.26 | 0.26 | 95 | 1020.3 |
| 20260903004023 | 65 | 0 | 0.0 | 2.0 | 0.00 | 0.26 | 0.26 | 95 | 1020.3 |
| 20260903003519 | 65 | 334 | 1.0 | 2.0 | 0.00 | 0.26 | 0.26 | 95 | 1020.6 |
| 20260903003048 | 65 | 341 | 0.0 | 2.0 | 0.00 | 0.26 | 0.26 | 95 | 1020.5 |
| 20260903002519 | 65 | 0 | 0.0 | 3.0 | 0.00 | 0.26 | 0.26 | 95 | 1020.2 |
| 20260903002019 | 65 | 309 | 1.0 | 5.0 | 0.00 | 0.26 | 0.26 | 95 | 1020.0 |
| 20260903001541 | 65 | 247 | 1.0 | 5.0 | 0.00 | 0.26 | 0.26 | 95 | 1020.0 |
| 20260903001021 | 65 | 0 | 1.0 | 3.0 | 0.00 | 0.26 | 0.26 | 95 | 1019.8 |
| 20260903000519 | 65 | 0 | 1.0 | 4.0 | 0.00 | 0.26 | 0.26 | 95 | 1019.6 |
| 20260903000049 | 65 | 227 | 1.0 | 4.0 | 0.00 | 0.26 | 0.26 | 95 | 1019.3 |
| 20260902235518 | 65 | 137 | 1.0 | 3.0 | 0.00 | 0.26 | 0.26 | 95 | 1019.4 |
| 20260902235019 | 65 | 309 | 0.0 | 2.0 | 0.00 | 0.26 | 0.26 | 95 | 1019.7 |
| 20260902234542 | 65 | 119 | 1.0 | 3.0 | 0.00 | 0.26 | 0.26 | 95 | 1019.5 |
| 20260902234020 | 65 | 309 | 1.0 | 6.0 | 0.00 | 0.26 | 0.26 | 95 | 1019.4 |
| 20260902233519 | 65 | 265 | 0.0 | 6.0 | 0.00 | 0.26 | 0.26 | 95 | 1019.6 |
| 20260902233043 | 65 | 22 | 0.0 | 6.0 | 0.00 | 0.26 | 0.26 | 95 | 1019.7 |
| 20260902232519 | 65 | 93 | 1.0 | 4.0 | 0.00 | 0.26 | 0.26 | 95 | 1019.6 |
| 20260902232020 | 65 | 0 | 1.0 | 4.0 | 0.00 | 0.26 | 0.26 | 95 | 1019.7 |
| 20260902231545 | 65 | 287 | 1.0 | 4.0 | 0.00 | 0.26 | 0.26 | 95 | 1019.9 |
| 20260902231022 | 65 | 41 | 1.0 | 4.0 | 0.00 | 0.26 | 0.26 | 95 | 1019.8 |
| 20260902230520 | 65 | 83 | 1.0 | 4.0 | 0.00 | 0.26 | 0.26 | 95 | 1020.0 |
| 20260902230041 | 65 | 153 | 1.0 | 6.0 | 0.00 | 0.26 | 0.26 | 95 | 1020.1 |
| 20260902225520 | 65 | 0 | 1.0 | 6.0 | 0.00 | 0.26 | 0.26 | 95 | 1020.2 |
| 20260902225025 | 65 | 44 | 2.0 | 5.0 | 0.00 | 0.26 | 0.26 | 95 | 1020.2 |
| 20260902224603 | 65 | 238 | 1.0 | 4.0 | 0.00 | 0.26 | 0.26 | 95 | 1020.4 |
| 20260902224017 | 65 | 134 | 0.0 | 4.0 | 0.00 | 0.26 | 0.26 | 95 | 1020.5 |
| 20260902223521 | 65 | 0 | 1.0 | 4.0 | 0.00 | 0.26 | 0.26 | 95 | 1020.6 |
| 20260902223040 | 65 | 0 | 1.0 | 4.0 | 0.00 | 0.26 | 0.26 | 95 | 1020.5 |
| 20260902222518 | 65 | 0 | 0.0 | 4.0 | 0.00 | 0.26 | 0.26 | 95 | 1020.5 |
| 20260902222019 | 65 | 0 | 1.0 | 4.0 | 0.00 | 0.26 | 0.26 | 95 | 1020.9 |
| 20260902221537 | 65 | 119 | 0.0 | 3.0 | 0.00 | 0.26 | 0.26 | 95 | 1021.0 |
| 20260902221021 | 65 | 309 | 0.0 | 3.0 | 0.00 | 0.26 | 0.26 | 95 | 1021.1 |
| 20260902220521 | 65 | 146 | 0.0 | 3.0 | 0.00 | 0.26 | 0.26 | 95 | 1021.0 |
| 20260902220041 | 65 | 0 | 0.0 | 3.0 | 0.00 | 0.26 | 0.26 | 95 | 1020.8 |
| 20260902215520 | 65 | 103 | 1.0 | 4.0 | 0.00 | 0.26 | 0.26 | 95 | 1020.9 |
| 20260902215024 | 65 | 190 | 0.0 | 4.0 | 0.00 | 0.26 | 0.26 | 95 | 1021.0 |
| 20260902214607 | 65 | 146 | 0.0 | 4.0 | 0.00 | 0.26 | 0.26 | 95 | 1020.9 |
| 20260902214018 | 65 | 106 | 1.0 | 4.0 | 0.00 | 0.26 | 0.26 | 95 | 1020.7 |
| 20260902213524 | 65 | 0 | 0.0 | 3.0 | 0.00 | 0.26 | 0.26 | 95 | 1020.8 |
| 20260902213041 | 65 | 325 | 1.0 | 4.0 | 0.00 | 0.26 | 0.26 | 95 | 1020.8 |
| 20260902212521 | 65 | 103 | 1.0 | 4.0 | 0.00 | 0.26 | 0.26 | 95 | 1020.6 |
| 20260902212020 | 65 | 0 | 0.0 | 4.0 | 0.00 | 0.26 | 0.26 | 95 | 1020.6 |
| 20260902211539 | 65 | 319 | 0.0 | 4.0 | 0.00 | 0.26 | 0.26 | 95 | 1020.5 |
| 20260902211021 | 64 | 0 | 0.0 | 4.0 | 0.00 | 0.26 | 0.26 | 95 | 1020.6 |
| 20260902210522 | 64 | 113 | 0.0 | 5.0 | 0.00 | 0.26 | 0.26 | 95 | 1020.5 |
| 20260902210046 | 64 | 51 | 1.0 | 5.0 | 0.00 | 0.26 | 0.26 | 95 | 1020.7 |
| 20260902205522 | 64 | 93 | 1.0 | 5.0 | 0.00 | 0.26 | 0.26 | 95 | 1020.7 |
| 20260902205021 | 65 | 110 | 2.0 | 5.0 | 0.00 | 0.26 | 0.26 | 95 | 1020.7 |
| 20260902204540 | 64 | 338 | 0.0 | 6.0 | 0.00 | 0.26 | 0.26 | 95 | 1020.6 |
| 20260902204023 | 64 | 163 | 2.0 | 6.0 | 0.00 | 0.26 | 0.26 | 95 | 1020.4 |
| 20260902203520 | 65 | 119 | 0.0 | 6.0 | 0.00 | 0.26 | 0.26 | 95 | 1020.4 |
| 20260902203044 | 65 | 93 | 2.0 | 6.0 | 0.01 | 0.26 | 0.26 | 95 | 1020.4 |
| 20260902202520 | 65 | 80 | 1.0 | 7.0 | 0.02 | 0.26 | 0.26 | 95 | 1020.4 |
| 20260902202020 | 65 | 265 | 2.0 | 7.0 | 0.03 | 0.26 | 0.26 | 95 | 1020.4 |
| 20260902201550 | 65 | 36 | 1.0 | 5.0 | 0.03 | 0.26 | 0.26 | 94 | 1020.5 |
| 20260902201021 | 65 | 101 | 1.0 | 8.0 | 0.03 | 0.26 | 0.26 | 95 | 1020.5 |
| 20260902200521 | 65 | 133 | 1.0 | 8.0 | 0.03 | 0.26 | 0.26 | 95 | 1020.5 |
| 20260902200041 | 65 | 67 | 2.0 | 9.0 | 0.04 | 0.26 | 0.26 | 94 | 1020.5 |
| 20260902195521 | 65 | 111 | 2.0 | 9.0 | 0.07 | 0.26 | 0.26 | 94 | 1020.4 |
| 20260902195020 | 65 | 51 | 3.0 | 8.0 | 0.10 | 0.26 | 0.26 | 94 | 1020.5 |
| 20260902194546 | 65 | 171 | 1.0 | 4.0 | 0.16 | 0.26 | 0.26 | 94 | 1020.5 |
| 20260902194019 | 65 | 123 | 1.0 | 4.0 | 0.20 | 0.26 | 0.26 | 94 | 1020.9 |
| 20260902193517 | 65 | 117 | 2.0 | 6.0 | 0.24 | 0.26 | 0.26 | 94 | 1021.0 |
| 20260902193042 | 65 | 59 | 2.0 | 6.0 | 0.23 | 0.25 | 0.25 | 94 | 1021.1 |
| 20260902192519 | 65 | 44 | 1.0 | 5.0 | 0.22 | 0.24 | 0.24 | 94 | 1021.0 |
| 20260902192020 | 65 | 108 | 1.0 | 4.0 | 0.21 | 0.23 | 0.23 | 94 | 1021.0 |
| 20260902191537 | 65 | 334 | 1.0 | 5.0 | 0.21 | 0.23 | 0.23 | 94 | 1021.1 |
| 20260902191024 | 65 | 93 | 1.0 | 8.0 | 0.21 | 0.23 | 0.23 | 93 | 1021.1 |
| 20260902190521 | 65 | 61 | 2.0 | 8.0 | 0.21 | 0.23 | 0.23 | 93 | 1021.2 |
| 20260902190041 | 65 | 47 | 1.0 | 4.0 | 0.19 | 0.21 | 0.21 | 92 | 1021.5 |
| 20260902185519 | 66 | 140 | 1.0 | 6.0 | 0.16 | 0.18 | 0.18 | 92 | 1021.6 |
| 20260902185023 | 66 | 0 | 1.0 | 6.0 | 0.14 | 0.16 | 0.16 | 91 | 1022.0 |
| 20260902184539 | 66 | 51 | 1.0 | 8.0 | 0.07 | 0.09 | 0.09 | 90 | 1022.2 |
| 20260902184018 | 67 | 15 | 2.0 | 8.0 | 0.02 | 0.04 | 0.04 | 89 | 1022.1 |
| 20260902183520 | 67 | 9 | 2.0 | 4.0 | 0.00 | 0.02 | 0.02 | 88 | 1022.2 |
| 20260902183044 | 67 | 312 | 2.0 | 4.0 | 0.00 | 0.02 | 0.02 | 88 | 1021.6 |
| 20260902182517 | 67 | 325 | 1.0 | 4.0 | 0.00 | 0.02 | 0.02 | 88 | 1021.3 |
| 20260902182018 | 67 | 142 | 0.0 | 3.0 | 0.00 | 0.02 | 0.02 | 88 | 1021.1 |
| 20260902181543 | 67 | 341 | 1.0 | 7.0 | 0.00 | 0.02 | 0.02 | 88 | 1021.0 |
| 20260902181024 | 67 | 67 | 1.0 | 7.0 | 0.00 | 0.02 | 0.02 | 88 | 1021.0 |
| 20260902180526 | 67 | 193 | 0.0 | 8.0 | 0.00 | 0.02 | 0.02 | 87 | 1021.2 |
| 20260902180040 | 67 | 80 | 2.0 | 9.0 | 0.00 | 0.02 | 0.02 | 87 | 1021.3 |
| 20260902175519 | 67 | 100 | 3.0 | 10.0 | 0.00 | 0.02 | 0.02 | 87 | 1021.3 |
| 20260902175021 | 67 | 196 | 1.0 | 10.0 | 0.00 | 0.02 | 0.02 | 87 | 1021.5 |
| 20260902174548 | 68 | 74 | 4.0 | 10.0 | 0.00 | 0.02 | 0.02 | 86 | 1021.6 |
| 20260902174021 | 68 | 81 | 3.0 | 9.0 | 0.00 | 0.02 | 0.02 | 87 | 1021.5 |
| 20260902173520 | 68 | 55 | 2.0 | 11.0 | 0.00 | 0.02 | 0.02 | 88 | 1021.5 |
| 20260902173045 | 67 | 137 | 3.0 | 11.0 | 0.00 | 0.02 | 0.02 | 87 | 1021.3 |
| 20260902172525 | 67 | 111 | 4.0 | 11.0 | 0.00 | 0.02 | 0.02 | 87 | 1021.3 |
| 20260902172022 | 67 | 142 | 3.0 | 9.0 | 0.00 | 0.02 | 0.02 | 87 | 1021.5 |
| 20260902171548 | 67 | 121 | 2.0 | 9.0 | 0.00 | 0.02 | 0.02 | 88 | 1021.5 |
| 20260902171019 | 67 | 108 | 3.0 | 9.0 | 0.00 | 0.02 | 0.02 | 88 | 1021.6 |
| 20260902170521 | 67 | 0 | 2.0 | 9.0 | 0.00 | 0.02 | 0.02 | 88 | 1021.6 |
| 20260902170042 | 67 | 13 | 3.0 | 8.0 | 0.00 | 0.02 | 0.02 | 88 | 1021.8 |
| 20260902165520 | 67 | 64 | 1.0 | 6.0 | 0.00 | 0.04 | 0.02 | 88 | 1021.8 |
| 20260902165019 | 67 | 64 | 1.0 | 6.0 | 0.00 | 0.04 | 0.02 | 87 | 1021.9 |
| 20260902164546 | 67 | 111 | 2.0 | 4.0 | 0.00 | 0.04 | 0.02 | 88 | 1021.9 |
| 20260902164021 | 67 | 330 | 1.0 | 4.0 | 0.00 | 0.04 | 0.02 | 87 | 1022.0 |
| 20260902163521 | 67 | 103 | 1.0 | 4.0 | 0.00 | 0.04 | 0.02 | 87 | 1021.9 |
| 20260902163039 | 67 | 93 | 0.0 | 6.0 | 0.00 | 0.04 | 0.02 | 88 | 1022.0 |
| 20260902162521 | 67 | 70 | 1.0 | 6.0 | 0.00 | 0.04 | 0.02 | 87 | 1021.9 |
| 20260902162023 | 67 | 196 | 1.0 | 6.0 | 0.00 | 0.04 | 0.02 | 87 | 1021.8 |
| 20260902161543 | 67 | 111 | 1.0 | 8.0 | 0.00 | 0.04 | 0.02 | 87 | 1021.7 |
| 20260902161020 | 67 | 9 | 1.0 | 8.0 | 0.00 | 0.04 | 0.02 | 87 | 1021.8 |
| 20260902160522 | 67 | 0 | 3.0 | 7.0 | 0.00 | 0.04 | 0.02 | 87 | 1021.8 |
| 20260902160041 | 67 | 146 | 1.0 | 7.0 | 0.00 | 0.04 | 0.02 | 87 | 1021.9 |
| 20260902155521 | 67 | 279 | 1.0 | 7.0 | 0.00 | 0.14 | 0.02 | 87 | 1022.0 |
| 20260902155018 | 67 | 59 | 1.0 | 5.0 | 0.00 | 0.14 | 0.02 | 87 | 1021.8 |
| 20260902154538 | 67 | 319 | 2.0 | 6.0 | 0.00 | 0.14 | 0.02 | 88 | 1021.8 |
| 20260902154019 | 67 | 309 | 0.0 | 7.0 | 0.00 | 0.14 | 0.02 | 89 | 1021.8 |
| 20260902153521 | 67 | 76 | 2.0 | 7.0 | 0.00 | 0.14 | 0.02 | 88 | 1021.8 |
| 20260902153037 | 67 | 51 | 1.0 | 8.0 | 0.00 | 0.14 | 0.02 | 88 | 1022.0 |
| 20260902152518 | 67 | 146 | 1.0 | 8.0 | 0.00 | 0.14 | 0.02 | 88 | 1022.0 |